STARLINK-34698

Last updated on Fri Dec 12 2025 00:02:05 GMT+0000 (Coordinated Universal Time)

1 66445U 25259Z 25345.58335648 .00105846 00000+0 25136-2 0 9991 2 66445 43.0010 54.1091 0002015 288.0999 347.7991 15.40609185 5989
UTC large
Height (km)
Speed (km/s)
/
Latitude / Longitude
Inclination (degrees)
Orbital Period (minutes)
Azimuth
Elevation
Range (km)
Doppler Factor

Next 0 passes for location: London (51.5072 / 0.1276)

Sorry there are no passes over London.